Regional Weather Roundup
Issued by NWS Little Rock, AR

Home | Current Version | Previous Version | Text Only | Print | Product List | Glossary Off
Versions: 1 2 3 4 5 6 7 8 9 10 11 12 13 14 15 16 17 18 19 20 21 22 23 24 25 26 27 28 29 30 31 32 33 34 35 36 37 38 39 40 41 42 43 44 45

000
ASUS44 KLZK 232205
RWRLZK

WEATHER ROUNDUP FOR ARKANSAS
NATIONAL WEATHER SERVICE LITTLE ROCK AR
400 PM CST THU FEB 23 2017

NOTE: "FAIR" INDICATES FEW OR NO CLOUDS BELOW 12,000 FEET WITH NO
SIGNIFICANT WEATHER AND/OR OBSTRUCTIONS TO VISIBILITY.

ARZ001-003-010-029-232300-
NORTHWEST ARKANSAS

CITY           SKY/WX    TMP DP  RH WIND       PRES   REMARKS
FAYETTEVILLE   MOSUNNY   80  49  33 S21G32    29.46F
FORT SMITH     SUNNY     85  45  24 S14G21    29.47F
HARRISON       SUNNY     77  47  34 S18G30    29.51F
BENTONVILLE    SUNNY     81  48  32 S15G24    29.47F
ROGERS         MOSUNNY   80  51  36 S20G29    29.46F
SILOAM SPGS    MOSUNNY   81  45  28 S23G30    29.44F
HIGHFILL       MOSUNNY   81  50  33 S22       29.45F
SPRINGDALE     PTSUNNY   81  50  34 S22G28    29.49S
$$

ARZ004-005-016-232300-
NORTH CENTRAL ARKANSAS

CITY           SKY/WX    TMP DP  RH WIND       PRES   REMARKS
BATESVILLE     SUNNY     73  57  56 S14G20    29.61F
FLIPPIN        SUNNY     79  50  36 S10G21    29.51S
MTN HOME       SUNNY     76  51  41 S15G24    29.53F
$$

ARZ040-041-232300-
WEST CENTRAL ARKANSAS

CITY           SKY/WX    TMP DP  RH WIND       PRES   REMARKS
MENA           SUNNY     81  52  36 S8        29.55F
MOUNT IDA      SUNNY     79  48  33 SE7       29.55F
$$

ARZ009-017-025-026-028-232300-
NORTHEAST ARKANSAS

CITY           SKY/WX    TMP DP  RH WIND       PRES   REMARKS
CORNING        FAIR      73  59  60 S17G24    29.62F
JONESBORO      SUNNY     74  55  51 S20G28    29.62F
NEWPORT        SUNNY     74  58  57 S22       29.61F
WALNUT RIDGE   SUNNY     73  57  56 CALM      29.61F
BLYTHEVILLE    SUNNY     76  56  49 S16       29.65F
NW BLYTHEVILLE MOSUNNY   77  57  50 S15G22    29.65
$$

ARZ022-023-033-042-044-232300-
CENTRAL ARKANSAS

CITY           SKY/WX    TMP DP  RH WIND       PRES   REMARKS
LITTLE ROCK    MOSUNNY   78  57  48 S14       29.60F
N LITTLE ROCK    N/A     77  58  51 S13G21    29.61F
JACKSONVILLE   SUNNY     77  61  57 SE9G18    29.60F
SEARCY         SUNNY     75  62  64 S18       29.63F
HOT SPRINGS    SUNNY     79  53  40 S13       29.59F
RUSSELLVILLE   SUNNY     80  51  36 S13G21    29.54F
CLINTON        FAIR      77  55  47 S15       29.57S
$$

ARZ036-232300-
EAST ARKANSAS

CITY           SKY/WX    TMP DP  RH WIND       PRES   REMARKS
WEST MEMPHIS   SUNNY     75  58  55 S17       29.66F
$$

ARZ050-053-066-070-073-232300-
SOUTHWEST ARKANSAS

CITY           SKY/WX    TMP DP  RH WIND       PRES   REMARKS
ARKADELPHIA    FAIR      80  57  45 S10G20    29.60F
CAMDEN         SUNNY     82  54  36 S8G18     29.62F
TEXARKANA      SUNNY     81  51  35 S15G23    29.59F
EL DORADO      SUNNY     79  56  45 S12G23    29.64F
DE QUEEN       SUNNY     82  51  34 S13       29.52F
$$

ARZ056-057-069-232300-
SOUTHEAST ARKANSAS

CITY           SKY/WX    TMP DP  RH WIND       PRES   REMARKS
PINE BLUFF     SUNNY     77  57  50 S16       29.64F
STUTTGART      SUNNY     75  55  50 SE20G25   29.64F
MONTICELLO     SUNNY     77  55  46 S12G18    29.66F

$$






USA.gov is the U.S. government's official web portal to all federal, state and local government web resources and services.